TimePST,TemperatureF,Dew PointF,Humidity,Sea Level PressureIn,VisibilityMPH,Wind Direction,Wind SpeedMPH,Gust SpeedMPH,PrecipitationIn,Events,Conditions,WindDirDegrees,DateUTC
12:56 AM,44.1,36.0,73,30.18,10.0,Calm,Calm,-,N/A,,Partly Cloudy,0,2013-01-03 08:56:00
1:56 AM,39.9,33.1,77,30.19,10.0,Variable,3.5,-,N/A,,Clear,0,2013-01-03 09:56:00
2:56 AM,39.9,33.1,77,30.19,10.0,Calm,Calm,-,N/A,,Clear,0,2013-01-03 10:56:00
3:56 AM,41.0,34.0,76,30.18,10.0,Calm,Calm,-,N/A,,Clear,0,2013-01-03 11:56:00
4:56 AM,37.9,33.1,83,30.18,10.0,Calm,Calm,-,N/A,,Scattered Clouds,0,2013-01-03 12:56:00
5:56 AM,37.9,33.1,83,30.19,10.0,SSW,3.5,-,N/A,,Partly Cloudy,200,2013-01-03 13:56:00
6:56 AM,39.9,34.0,79,30.19,10.0,Calm,Calm,-,N/A,,Partly Cloudy,0,2013-01-03 14:56:00
7:56 AM,41.0,34.0,76,30.21,10.0,SSE,3.5,-,N/A,,Mostly Cloudy,160,2013-01-03 15:56:00
8:56 AM,44.1,36.0,73,30.23,10.0,Calm,Calm,-,N/A,,Scattered Clouds,0,2013-01-03 16:56:00
9:56 AM,46.0,37.0,71,30.25,10.0,Calm,Calm,-,N/A,,Scattered Clouds,0,2013-01-03 17:56:00
10:56 AM,48.0,36.0,63,30.25,10.0,Calm,Calm,-,N/A,,Scattered Clouds,0,2013-01-03 18:56:00
11:56 AM,48.9,39.9,71,30.24,10.0,Calm,Calm,-,N/A,,Scattered Clouds,0,2013-01-03 19:56:00
12:56 PM,50.0,39.0,66,30.22,9.0,ENE,3.5,-,N/A,,Partly Cloudy,60,2013-01-03 20:56:00
1:56 PM,51.1,39.0,63,30.21,10.0,Calm,Calm,-,N/A,,Scattered Clouds,0,2013-01-03 21:56:00
2:56 PM,52.0,39.9,63,30.21,10.0,Calm,Calm,-,N/A,,Scattered Clouds,0,2013-01-03 22:56:00
3:56 PM,53.1,41.0,64,30.22,10.0,NNE,3.5,-,N/A,,Scattered Clouds,20,2013-01-03 23:56:00
4:56 PM,51.1,42.1,71,30.22,10.0,Calm,Calm,-,N/A,,Partly Cloudy,0,2013-01-04 00:56:00
5:56 PM,52.0,39.9,63,30.24,10.0,WNW,3.5,-,N/A,,Partly Cloudy,300,2013-01-04 01:56:00
6:56 PM,50.0,39.0,66,30.25,10.0,Calm,Calm,-,N/A,,Clear,0,2013-01-04 02:56:00
7:56 PM,48.9,39.0,69,30.25,10.0,SSE,3.5,-,N/A,,Clear,160,2013-01-04 03:56:00
8:56 PM,50.0,41.0,71,30.26,10.0,NNE,3.5,-,N/A,,Clear,30,2013-01-04 04:56:00
9:56 PM,46.0,37.9,73,30.27,10.0,Calm,Calm,-,N/A,,Clear,0,2013-01-04 05:56:00
10:56 PM,48.0,39.0,71,30.27,10.0,Calm,Calm,-,N/A,,Clear,0,2013-01-04 06:56:00
11:56 PM,44.1,37.0,76,30.27,10.0,South,3.5,-,N/A,,Clear,170,2013-01-04 07:56:00